This is the latest recevied weather packets stored in our database for station/object KB3GVC-13. If no packets are shown the sender has not sent any weather packets the latest 1 day(s).
| Time | Temp. | Humidity | Pressure | Rain* | Wind** | Luminosity | Snow |
|---|---|---|---|---|---|---|---|
| 1778045166 | 20.56° C | 69% | 1011.7 hPa | 0 mm | 2.24 m/s, 154° | - | - |
| 1778044864 | 20.56° C | 68% | 1011.7 hPa | 0 mm | 1.34 m/s, 205° | - | - |
| 1778044561 | 20.56° C | 67% | 1011.8 hPa | 0 mm | 0.89 m/s, 140° | - | - |
| 1778044257 | 20.56° C | 67% | 1011.8 hPa | 0 mm | 0.45 m/s, 206° | - | - |
| 1778043955 | 20.56° C | 66% | 1012 hPa | 0 mm | 0.45 m/s, 134° | - | - |
| 1778043653 | 21.11° C | 66% | 1011.8 hPa | 0 mm | 0.89 m/s, 121° | - | - |
| 1778043349 | 21.11° C | 65% | 1011.7 hPa | 0 mm | 1.79 m/s, 210° | - | - |
| 1778043046 | 21.11° C | 65% | 1011.8 hPa | 0 mm | 2.68 m/s, 196° | - | - |
| 1778042744 | 21.11° C | 64% | 1011.8 hPa | 0 mm | 0.89 m/s, 185° | - | - |
| 1778042440 | 21.11° C | 63% | 1011.9 hPa | 0 mm | 0.89 m/s, 150° | - | - |
| 1778042137 | 21.11° C | 63% | 1011.8 hPa | 0 mm | 0.89 m/s, 127° | - | - |
| 1778041836 | 21.11° C | 62% | 1011.9 hPa | 0 mm | 0 m/s | - | - |
| 1778041534 | 21.11° C | 62% | 1011.8 hPa | 0 mm | 1.34 m/s, 182° | - | - |
| 1778041232 | 21.11° C | 62% | 1011.9 hPa | 0 mm | 0.45 m/s, 92° | - | - |
| 1778040931 | 21.11° C | 61% | 1011.7 hPa | 0 mm | 3.13 m/s, 139° | - | - |
| 1778040627 | 21.67° C | 60% | 1011.9 hPa | 0 mm | 0.89 m/s, 280° | - | - |
| 1778040325 | 21.67° C | 60% | 1011.9 hPa | 0 mm | 2.24 m/s, 132° | - | - |
| 1778040020 | 21.67° C | 60% | 1011.7 hPa | 0 mm | 0.45 m/s, 198° | - | - |
| 1778039718 | 21.11° C | 59% | 1011.8 hPa | 0 mm | 1.79 m/s, 208° | - | - |
| 1778039414 | 21.67° C | 60% | 1011.6 hPa | 0 mm | 0 m/s | - | - |
| 1778039112 | 21.67° C | 60% | 1011.7 hPa | 0 mm | 0 m/s | - | - |
| 1778038809 | 21.67° C | 59% | 1011.7 hPa | 0 mm | 1.34 m/s, 161° | - | - |
| 1778038506 | 21.67° C | 59% | 1011.8 hPa | 0 mm | 2.24 m/s, 126° | - | - |
| 1778038202 | 21.67° C | 58% | 1011.7 hPa | 0 mm | 1.79 m/s, 92° | - | - |
| 1778037900 | 21.67° C | 58% | 1011.6 hPa | 0 mm | 0.89 m/s, 148° | - | - |
* Rain latest hour (hover to see other rain measurements)
** Current wind speed in m/s (hover to see current wind gust speed)